Regional Weather Roundup
Issued by NWS

Home | Current Version | Previous Version | Text Only | Print | Product List | Glossary Off
Versions: 1 2 3 4 5 6 7 8 9 10 11 12 13 14 15 16 17 18 19 20 21 22 23 24 25 26 27 28 29 30 31 32 33 34 35 36 37 38 39 40 41 42 43 44 45 46 47 48 49

000
ASUS45 KSLC 210810
RWRUT

UTAH REGIONAL WEATHER ROUNDUP
NATIONAL WEATHER SERVICE SALT LAKE CITY UT
200 AM MDT SUN SEP 21 2014

UTZ001>011-023>025-210900-

NORTHERN UTAH

CITY           SKY/WX    TMP DP  RH WIND       PRES   REMARKS
HILL AFB       MOCLDY    66  39  37 E12       30.12F
LOGAN          CLEAR     54  47  77 CALM      30.13R
OGDEN          MOCLDY    66  41  40 S9        30.09F
PROVO AIRPORT  CLOUDY    64  48  55 S5        30.12S
SALT LAKE CITY CLOUDY    66  50  56 SW6       30.07F
VERNAL         CLEAR     59  34  39 NW7       30.16S
WENDOVER       CLOUDY    70  45  40 NE7       30.09S
HEBER CITY     MOCLDY    54  43  66 CALM      30.19R
WEST JORDAN    CLEAR     64  43  45 CALM      30.11S

$$

UTZ012>022-026-027-210900-

SOUTHERN UTAH

CITY           SKY/WX    TMP DP  RH WIND       PRES   REMARKS
BRYCE CANYON   CLOUDY    53  51  93 N5        30.33F
CEDAR CITY     CLOUDY    59  55  87 S5        30.16R
MILFORD        LGT RAIN  61  59  93 E7        30.16S
MOAB/CYNLANDS  PTCLDY    79  38  22 S16G23    30.05R
PRICE          PTCLDY    73  36  25 NE15      30.15S
ST GEORGE      PTSUNNY   73  55  53 N7        30.01S
KANAB          MOCLDY    64  54  68 NW8       30.15F

$$

REGIONAL REPORTS     COLORADO/ARIZONA

CITY           SKY/WX    TMP DP  RH WIND       PRES   REMARKS
CRAIG, CO      CLEAR     43  34  70 CALM      30.26S
GRAND JUNCTION PTCLDY    66  42  41 E9        30.11R
RIFLE          CLEAR     59  42  53 S5        30.19S
MONTROSE       MOCLDY    69  46  43 E10       30.21R
CORTEZ         LGT RAIN  62  56  80 N18G26    30.25R
PAGE, AZ       CLOUDY    74  51  44 NW6       30.09S
GRAND CANYON   CLOUDY    58  54  86 E3        30.24S
KINGMAN        CLEAR     76  55  48 S8        29.99S
FLAGSTAFF      CLOUDY    59  54  83 W3        30.28F

$$

REGIONAL REPORTS    NEVADA/IDAHO/WYOMING

CITY           SKY/WX    TMP DP  RH WIND       PRES   REMARKS
LAS VEGAS, NV  CLOUDY    78  58  49 NW9       29.90R
ELY            CLOUDY    57  51  80 VRB3      30.23F
ELKO           CLOUDY    61  48  62 S5        30.20S
POCATELLO, ID  CLEAR     51  46  83 CALM      30.14R
BURLEY         MOCLDY    52  46  80 CALM      30.10R
EVANSTON, WY   PTCLDY    57  29  34 E7        30.29S
ROCK SPRINGS   CLEAR     53  37  54 NE9       30.33S

$$



USA.gov is the U.S. government's official web portal to all federal, state and local government web resources and services.